• Em Portugal
  • Lista de países
  • Para 7 dias
  • Temperatura da água
  • Mapas de satélite
  • Mapa do tempo
  • Widgets de tempo
  • user-avatar
    Iniciar Sessão

    Previsão horária em Kandi

    Hoje, 20 Outubro, Sábado

    Tempo Temperatura Precipitação Vento Pressão Humidade
    00:00 +29°C° 0 mm 1 m/s 735 mmHg 51%
    01:00 +29°C° 0 mm 1 m/s 735 mmHg 53%
    02:00 +28°C° 0 mm 1 m/s 735 mmHg 55%
    03:00 +28°C° 0 mm 1 m/s 735 mmHg 57%
    04:00 +28°C° 0 mm 1 m/s 735 mmHg 59%
    05:00 +27°C° 0 mm 1 m/s 735 mmHg 61%
    06:00 +27°C° 0 mm 1 m/s 735 mmHg 63%
    07:00 +30°C° 0 mm 1 m/s 736 mmHg 54%
    08:00 +32°C° 0 mm 0 m/s 737 mmHg 46%
    09:00 +35°C° 0 mm 0 m/s 737 mmHg 38%
    10:00 +39°C° 0 mm 1 m/s 737 mmHg 31%
    11:00 +40°C° 0 mm 3 m/s 736 mmHg 24%
    12:00 +43°C° 0 mm 4 m/s 736 mmHg 17%
    13:00 +43°C° 0 mm 4 m/s 735 mmHg 16%
    14:00 +43°C° 0 mm 4 m/s 734 mmHg 15%
    15:00 +43°C° 0 mm 4 m/s 734 mmHg 14%
    16:00 +40°C° 0 mm 3 m/s 734 mmHg 17%
    17:00 +37°C° 0 mm 2 m/s 734 mmHg 19%
    18:00 +34°C° 0 mm 1 m/s 734 mmHg 22%
    19:00 +33°C° 0 mm 1 m/s 734 mmHg 23%
    20:00 +32°C° 0 mm 1 m/s 735 mmHg 25%
    21:00 +30°C° 0 mm 1 m/s 735 mmHg 27%
    22:00 +30°C° 0 mm 1 m/s 735 mmHg 29%
    23:00 +29°C° 0 mm 1 m/s 735 mmHg 31%

    Amanhã, 21 Outubro, Domingo

    Tempo Temperatura Precipitação Vento Pressão Humidade
    00:00 +29°C° 0 mm 1 m/s 735 mmHg 33%
    01:00 +28°C° 0 mm 1 m/s 735 mmHg 34%
    02:00 +27°C° 0 mm 1 m/s 735 mmHg 36%
    03:00 +27°C° 0 mm 1 m/s 734 mmHg 37%
    04:00 +27°C° 0 mm 1 m/s 734 mmHg 39%
    05:00 +26°C° 0 mm 1 m/s 735 mmHg 41%
    06:00 +26°C° 0 mm 1 m/s 735 mmHg 43%
    07:00 +29°C° 0 mm 1 m/s 735 mmHg 38%
    08:00 +32°C° 0 mm 1 m/s 736 mmHg 34%
    09:00 +35°C° 0 mm 1 m/s 737 mmHg 29%
    10:00 +38°C° 0 mm 2 m/s 736 mmHg 24%
    11:00 +40°C° 0 mm 2 m/s 735 mmHg 19%
    12:00 +42°C° 0 mm 2 m/s 735 mmHg 13%
    13:00 +42°C° 0 mm 2 m/s 734 mmHg 13%
    14:00 +42°C° 0 mm 2 m/s 734 mmHg 12%
    15:00 +43°C° 0 mm 3 m/s 733 mmHg 11%
    16:00 +40°C° 0 mm 2 m/s 733 mmHg 14%
    17:00 +36°C° 0 mm 1 m/s 733 mmHg 16%
    18:00 +34°C° 0 mm 1 m/s 733 mmHg 19%
    19:00 +33°C° 0 mm 1 m/s 734 mmHg 20%
    20:00 +32°C° 0 mm 1 m/s 735 mmHg 22%
    21:00 +31°C° 0 mm 1 m/s 736 mmHg 24%
    22:00 +30°C° 0 mm 1 m/s 735 mmHg 27%
    23:00 +30°C° 0 mm 1 m/s 735 mmHg 30%

    Depois de amanhã, 22 Outubro, Segunda-feira

    Tempo Temperatura Precipitação Vento Pressão Humidade
    00:00 +29°C° 0 mm 1 m/s 735 mmHg 33%
    01:00 +28°C° 0 mm 1 m/s 735 mmHg 38%
    02:00 +28°C° 0 mm 2 m/s 735 mmHg 42%
    03:00 +28°C° 0 mm 2 m/s 734 mmHg 47%
    04:00 +27°C° 0 mm 2 m/s 734 mmHg 52%
    05:00 +27°C° 0 mm 2 m/s 735 mmHg 57%
    06:00 +26°C° 0 mm 2 m/s 735 mmHg 62%
    07:00 +29°C° 0 mm 2 m/s 736 mmHg 56%
    08:00 +32°C° 0 mm 2 m/s 736 mmHg 50%
    09:00 +35°C° 0 mm 2 m/s 737 mmHg 44%
    10:00 +37°C° 0 mm 1 m/s 736 mmHg 36%
    11:00 +42°C° 0 mm 1 m/s 736 mmHg 29%
    12:00 +42°C° 0 mm 0 m/s 735 mmHg 21%
    13:00 +44°C° 0 mm 1 m/s 735 mmHg 20%
    14:00 +43°C° 0 mm 1 m/s 734 mmHg 18%
    15:00 +42°C° 0 mm 2 m/s 733 mmHg 16%
    16:00 +40°C° 0 mm 1 m/s 733 mmHg 18%
    17:00 +37°C° 0 mm 1 m/s 733 mmHg 21%
    18:00 +34°C° 0 mm 1 m/s 734 mmHg 24%
    19:00 +34°C° 0 mm 1 m/s 734 mmHg 25%
    20:00 +33°C° 0 mm 1 m/s 735 mmHg 26%
    21:00 +32°C° 0 mm 1 m/s 736 mmHg 28%
    22:00 +31°C° 0 mm 1 m/s 736 mmHg 30%
    23:00 +31°C° 0 mm 2 m/s 736 mmHg 33%

    23 Outubro, Terça-feira

    Tempo Temperatura Precipitação Vento Pressão Humidade
    00:00 +30°C° 0 mm 2 m/s 736 mmHg 35%
    01:00 +30°C° 0 mm 2 m/s 735 mmHg 40%
    02:00 +29°C° 0 mm 2 m/s 735 mmHg 46%
    03:00 +29°C° 0 mm 2 m/s 735 mmHg 51%
    04:00 +28°C° 0 mm 2 m/s 735 mmHg 57%
    05:00 +27°C° 0 mm 2 m/s 735 mmHg 62%
    06:00 +27°C° 0 mm 2 m/s 736 mmHg 67%
    07:00 +30°C° 0 mm 2 m/s 736 mmHg 59%
    08:00 +34°C° 0 mm 2 m/s 737 mmHg 50%
    09:00 +37°C° 0 mm 2 m/s 737 mmHg 41%
    10:00 +40°C° 0 mm 1 m/s 737 mmHg 34%
    11:00 +42°C° 0 mm 1 m/s 736 mmHg 26%
    12:00 +45°C° 0 mm 1 m/s 735 mmHg 19%
    13:00 +45°C° 0 mm 2 m/s 735 mmHg 17%
    14:00 +45°C° 0 mm 2 m/s 734 mmHg 16%
    15:00 +44°C° 0 mm 3 m/s 733 mmHg 14%
    16:00 +41°C° 0 mm 2 m/s 733 mmHg 17%
    17:00 +39°C° 0 mm 2 m/s 734 mmHg 20%
    18:00 +35°C° 0 mm 1 m/s 734 mmHg 22%
    19:00 +34°C° 0 mm 1 m/s 734 mmHg 24%
    20:00 +34°C° 0 mm 1 m/s 735 mmHg 26%
    21:00 +33°C° 0 mm 1 m/s 735 mmHg 28%
    22:00 +32°C° 0 mm 1 m/s 735 mmHg 30%
    23:00 +31°C° 0 mm 1 m/s 735 mmHg 32%

    24 Outubro, Quarta-feira

    Tempo Temperatura Precipitação Vento Pressão Humidade
    00:00 +30°C° 0 mm 2 m/s 735 mmHg 35%
    01:00 +30°C° 0 mm 2 m/s 735 mmHg 38%
    02:00 +29°C° 0 mm 2 m/s 735 mmHg 42%
    03:00 +29°C° 0 mm 2 m/s 734 mmHg 45%
    04:00 +28°C° 0 mm 2 m/s 735 mmHg 52%
    05:00 +28°C° 0 mm 2 m/s 735 mmHg 59%
    06:00 +27°C° 0 mm 2 m/s 736 mmHg 66%
    07:00 +30°C° 0 mm 2 m/s 736 mmHg 60%
    08:00 +32°C° 0 mm 2 m/s 736 mmHg 54%
    09:00 +36°C° 0 mm 3 m/s 737 mmHg 48%
    10:00 +39°C° 0 mm 2 m/s 736 mmHg 39%
    11:00 +41°C° 0 mm 2 m/s 736 mmHg 31%
    12:00 +44°C° 0 mm 1 m/s 735 mmHg 23%
    13:00 +44°C° 0 mm 1 m/s 734 mmHg 21%
    14:00 +43°C° 0 mm 2 m/s 734 mmHg 19%
    15:00 +43°C° 0 mm 2 m/s 733 mmHg 16%
    16:00 +41°C° 0 mm 2 m/s 733 mmHg 19%
    17:00 +39°C° 0 mm 2 m/s 733 mmHg 22%
    18:00 +36°C° 0 mm 1 m/s 734 mmHg 25%
    19:00 +35°C° 0 mm 1 m/s 734 mmHg 28%
    20:00 +34°C° 0 mm 2 m/s 735 mmHg 31%
    21:00 +32°C° 0 mm 2 m/s 735 mmHg 34%
    22:00 +32°C° 0 mm 2 m/s 735 mmHg 39%
    23:00 +31°C° 0 mm 2 m/s 735 mmHg 44%

    25 Outubro, Quinta-feira

    Tempo Temperatura Precipitação Vento Pressão Humidade
    00:00 +31°C° 0 mm 2 m/s 735 mmHg 49%
    01:00 +30°C° 0 mm 2 m/s 735 mmHg 55%
    02:00 +30°C° 0 mm 3 m/s 734 mmHg 62%
    03:00 +29°C° 0 mm 3 m/s 734 mmHg 69%
    04:00 +29°C° 0 mm 3 m/s 734 mmHg 72%
    05:00 +28°C° 0 mm 2 m/s 735 mmHg 76%
    06:00 +27°C° 0 mm 2 m/s 735 mmHg 79%
    07:00 +30°C° 0 mm 2 m/s 736 mmHg 72%
    08:00 +33°C° 0 mm 3 m/s 736 mmHg 64%
    09:00 +35°C° 0 mm 3 m/s 736 mmHg 56%
    10:00 +37°C° 0 mm 2 m/s 736 mmHg 47%
    11:00 +40°C° 0 mm 2 m/s 735 mmHg 38%
    12:00 +43°C° 0 mm 1 m/s 734 mmHg 29%
    13:00 +43°C° 0 mm 1 m/s 734 mmHg 26%
    14:00 +43°C° 0 mm 2 m/s 733 mmHg 23%
    15:00 +43°C° 0 mm 2 m/s 733 mmHg 20%
    16:00 +41°C° 0 mm 2 m/s 733 mmHg 24%
    17:00 +39°C° 0 mm 2 m/s 733 mmHg 27%
    18:00 +36°C° 0 mm 1 m/s 734 mmHg 30%
    19:00 +35°C° 0 mm 1 m/s 734 mmHg 33%
    20:00 +35°C° 0 mm 2 m/s 734 mmHg 36%
    21:00 +34°C° 0 mm 2 m/s 735 mmHg 39%
    22:00 +32°C° 0 mm 2 m/s 735 mmHg 43%
    23:00 +31°C° 0 mm 2 m/s 735 mmHg 48%
    Mostrar mais